STARLINK-32699, 62482

Orbit data source: Space-Track

STARLINK-32699, 62482 is a payload satellite owned by SpaceX/Seattle (US) in LEO that was launched on Tue, 31 Dec 2024 UTC via an FALCON 9 launch vehicle from the Air Force Eastern Test Range (AFETR). Payload-class satellites include a variety of spacecraft equipped with specific instruments for various scientific and technological missions. These include communications satellites like Starlink; space stations such as the ISS; scientific satellites like the Hubble; Earth observation satellites from companies like Planet Labs, Umbra, and HawkEye 360; GPS; miniature CubeSats for education and research; and military/defense satellites.

Loading next visibility...
Identifier
62482, 2024-254W
Orbit
LEO
Country
Flag of USUS
Related business
Manufacturer
SpaceX/Seattle
Mission
Operational Commercial Communications
Bus & Motor
STARLINK V2M, Unknown motor
Mass
730 kg wet, ~700 kg dry
Launch date (UTC)
2024-12-31 (1 year ago)
Launch vehicle
FALCON 9
Launch site
Air Force Eastern Test Range (AFETR)
Object type
Payload
Rocket body
Debris
Shape & HBR
Box + 2 Pan, 17.7 m
Radar Cross Section
33.884 m², Large (>1 m²)

Expand to show TLE details & history
Last TLE update: 11 hours ago

TLE from 11 hours ago
0 STARLINK-32699
1 62482U 24254W   26125.82277854  .00021592  00000-0  79136-3 0  9996
2 62482  42.9974  56.9234 0001345 172.6617 187.4254 15.27600386 76205
Epoch: 2026-05-05T19:44Z
TLE epoch observation values (Epoch: 2026-05-05T19:44:48.065Z)
Latitude
-0.00007°
Longitude
-102.96905°
Altitude
483.678 km
Speed
7.625 km/s
True Right ascension
03h 47m 41s
True Declination
0° 00' 00"
Sunlit
Object was in daylight at epoch
Visualization orbit readout
Latitude
Unknown
Longitude
Unknown
Altitude
Unknown
Speed
Unknown
Apparent Right ascension
Unknown
Apparent Declination
Unknown
Sunlit
N/A
Visualization observer readout
Local Sidereal Time
14:24:05
Azimuth
Unknown
Elevation
Unknown
Doppler factor
Unknown
Orbital elements
Apogee altitude
485.857 km
Perigee altitude
484.011 km
Semi-major axis
6,863.071 km
Eccentricity
0.00013
Inclination
42.9974°
RAAN
56.9234°
Arg. of periapsis
172.6617°
True anomaly
187.42341°
Mean anomaly
187.4254°
Eccentric anomaly
187.4244°
Mean motion
3.81738 °/min
Orbital period
94.31 mins
BSTAR
0.00079136
Loading maneuver chart data...
Computing Atmospheric mass density...
Loading historical data...
Loading historical data...
Loading historical data...
Loading historical data...
Loading historical data...
Loading historical data...
Loading historical data...

Documentation

Showing up to 5 results
|